{"data":{"norad_id":53251,"epoch":"2026-05-25T05:01:45.056928Z","epoch_age_seconds":54011,"freshness":"FRESH","line1":"1 53251U 22086K   26145.20954927 -.00000044  00000+0  15346-4 0  9991","line2":"2 53251  53.2119 210.6081 0001039  74.5318 285.5789 15.08834559212612","mean_motion":15.08834559,"eccentricity":0.0001039,"inclination_deg":53.2119,"raan_deg":210.6081,"arg_perigee_deg":74.5318,"mean_anomaly_deg":285.5789,"bstar":1.5346e-5,"rev_number":21261,"period_min":95.437898834606,"perigee_km":539.041250474,"apogee_km":540.47878947475,"semimajor_km":6917.8970199744,"source":"CELESTRAK","updated_at":"2026-05-25T13:38:17.361668Z"}}